Regional Weather Roundup
Issued by NWS

Home | Current Version | Previous Version | Graphics & Text | Print | Product List | Glossary On
Versions: 1 2 3 4 5 6 7 8 9 10 11 12 13 14 15 16 17 18 19 20 21 22 23 24 25 26 27 28 29 30 31 32 33 34 35 36 37 38 39 40 41 42 43 44 45 46 47 48 49 50
826
ASUS44 KLIX 191901
RWRLA
LOUISIANA WEATHER ROUNDUP
NATIONAL WEATHER SERVICE NEW ORLEANS LA
100 PM CST FRI DEC 19 2014

NOTE: "FAIR" INDICATES FEW OR NO CLOUDS BELOW 12,000 FEET WITH NO
      SIGNIFICANT WEATHER AND/OR OBSTRUCTIONS TO VISIBILITY.
      SKY/WX - SKY CONDITION AND SIGNIFICANT WEATHER.
      TMP - AIR TEMPERATURE.    DP   - DEWPOINT TEMPERATURE.
      RH  - RELATIVE HUMIDITY.  PRES - PRESSURE.
      HX  - HEAT INDEX.         WCI  - WIND CHILL INDEX.

*  THESE STATIONS ARE NOT NWS OR FAA STATIONS AND ARE NOT UNDER
   NWS QUALITY CONTROL.

LAZ040-048-061>063-065-066-069-192000-
SOUTHEAST LOUISIANA

CITY           SKY/WX    TMP DP  RH WIND       PRES   REMARKS
N.O. AUDUBON     N/A     54  54  99 MISG        N/A
N.O. INTL ARPT LGT RAIN  54  51  90 E8        30.07F FOG
N.O. LAKEFRONT RAIN      55  51  86 E10       30.08S FOG
N.O. DOWNTOWN* CLOUDY    54  48  82 NE5       30.09R
SLIDELL        LGT RAIN  51  48  89 NE5       30.05F FOG
BATON ROUGE    LGT RAIN  54  52  93 NE8       30.07F FOG
BOOTHVILLE     LGT RAIN  58  57  97 E12       30.04F FOG
BELLE CHASSE   HVY RAIN  54  52  93 N3        30.07F FOG
BOGALUSA*      RAIN      50  45  84 NE6       30.10S
GALLIANO*      NOT AVBL
NEW ROADS*     NOT AVBL
GONZALES*      NOT AVBL
HAMMOND*       NOT AVBL
HOUMA*         CLOUDY    55  55 100 NE9       30.06F FOG
PORT FOURCHON* CLOUDY    61  59  94 E14G20    30.07F

$$

LAZ041-044-053-054-192000-
SOUTHWEST LOUISIANA

CITY           SKY/WX    TMP DP  RH WIND       PRES   REMARKS
LAKE CHARLES   RAIN      56  55  97 NE10      30.03F FOG
LAFAYETTE      CLOUDY    58  57  97 NE7       30.05F
PATTERSON      CLOUDY    55  54  94 E9        30.04F
SALT POINT       N/A     60  56  86 VRB6      30.01F
NEW IBERIA     CLOUDY    58  55  90 NE6       30.05F
CHENAULT AIRPK RAIN      55  55 100 NE8       30.05F

$$

LAZ027-028-192000-
CENTRAL LOUISIANA

CITY           SKY/WX    TMP DP  RH WIND       PRES   REMARKS
FORT POLK      NOT AVBL
ALEXANDRIA INT LGT RAIN  52  51  97 N9        30.09F
ALEXANDRIA     LGT RAIN  51  49  92 VRB7      30.11F

$$

LAZ001-002-192000-
NORTHWEST LOUISIANA

CITY           SKY/WX    TMP DP  RH WIND       PRES   REMARKS
SHREVEPORT     LGT RAIN  49  47  93 E14       30.08F
BARKSDALE AFB  NOT AVBL
DTN SHREVEPORT CLOUDY    47  44  90 E6        30.11F

$$

LAZ014-016-192000-
NORTHEAST LOUISIANA

CITY           SKY/WX    TMP DP  RH WIND       PRES   REMARKS
MONROE         LGT RAIN  46  45  96 N9        30.19F FOG
TALLULAH       RAIN      47  44  90 N8        30.18S

$$




USA.gov is the U.S. government's official web portal to all federal, state and local government web resources and services.